QPF
0.04 0.04 0.05 0.05 0.05 0.04 0.06 0.07 0.06 0.05 0.04 0.04 0.04 0.03 0.04 0.05 0.05 0.05 0.07 0.08 0.06 0.04 0.04 0.03 0.03 0.04 0.03 0.03 0.04 0.04 0.03 0.02 0.02 0.03 0.03 0.04 0.05 0.07
0.04 0.05 0.05 0.04 0.04 0.04 0.04 0.05 0.06 0.06 0.04 0.02 0.03 0.03 0.06 0.05 0.04 0.04 0.05 0.07 0.06 0.05 0.04 0.04 0.04 0.04 0.03 0.02 0.02 0.04 0.04 0.02 0.02 0.01 0.02 0.02 0.03 0.05
0.04 0.05 0.04 0.04 0.06 0.05 0.05 0.05 0.07 0.08 0.06 0.03 0.04 0.05 0.07 0.07 0.05 0.06 0.06 0.06 0.07 0.06 0.05 0.05 0.05 0.05 0.03 0.02 0.02 0.02 0.03 0.03 0.02 0.02 0.01 0.02 0.02 0.03
0.04 0.05 0.04 0.05 0.07 0.08 0.08 0.07 0.06 0.07 0.07 0.05 0.05 0.06 0.07 0.07 0.08 0.09 0.07 0.04 0.06 0.07 0.07 0.06 0.07 0.05 0.03 0.02 0.01 0.01 0.01 0.02 0.02 0.02 0.01 0.02 0.02 0.03
0.05 0.05 0.05 0.07 0.08 0.09 0.08 0.07 0.05 0.05 0.06 0.06 0.06 0.06 0.07 0.08 0.11 0.10 0.09 0.07 0.05 0.06 0.09 0.08 0.08 0.06 0.03 0.01 0.01 0.00 0.00 0.00 0.00 0.01 0.01 0.01 0.01 0.02
0.05 0.06 0.07 0.07 0.07 0.07 0.06 0.06 0.06 0.06 0.07 0.08 0.07 0.08 0.09 0.10 0.13 0.11 0.10 0.10 0.06 0.04 0.07 0.09 0.08 0.06 0.03 0.01 0.01 0.00 0.00 0.00 0.00 0.00 0.00 0.00 0.00 0.01
0.06 0.06 0.07 0.06 0.05 0.05 0.04 0.04 0.05 0.06 0.06 0.07 0.08 0.09 0.09 0.11 0.10 0.09 0.09 0.08 0.07 0.05 0.06 0.05 0.05 0.05 0.05 0.04 0.02 0.01 0.01 0.01 0.00 0.00 0.00 0.00 0.00 0.00
0.06 0.08 0.07 0.06 0.04 0.03 0.02 0.03 0.04 0.05 0.05 0.06 0.05 0.06 0.07 0.08 0.08 0.07 0.08 0.07 0.06 0.05 0.05 0.05 0.04 0.04 0.05 0.05 0.04 0.03 0.02 0.02 0.01 0.01 0.00 0.00 0.00 0.00
0.08 0.08 0.06 0.05 0.04 0.03 0.02 0.02 0.03 0.03 0.03 0.04 0.04 0.04 0.04 0.06 0.06 0.06 0.06 0.06 0.05 0.05 0.06 0.05 0.05 0.05 0.04 0.04 0.04 0.03 0.03 0.02 0.02 0.01 0.01 0.00 0.00 0.00
0.06 0.05 0.05 0.05 0.04 0.03 0.02 0.02 0.02 0.02 0.02 0.02 0.03 0.03 0.04 0.05 0.06 0.07 0.07 0.06 0.05 0.06 0.07 0.06 0.06 0.06 0.04 0.04 0.03 0.02 0.01 0.01 0.01 0.01 0.01 0.01 0.00 0.00
0.03 0.03 0.03 0.03 0.03 0.03 0.03 0.03 0.03 0.03 0.02 0.01 0.01 0.02 0.03 0.03 0.04 0.06 0.07 0.07 0.06 0.06 0.07 0.08 0.06 0.05 0.06 0.06 0.04 0.01 0.01 0.01 0.01 0.01 0.01 0.01 0.01 0.01
0.04 0.04 0.03 0.02 0.02 0.03 0.04 0.04 0.04 0.04 0.03 0.03 0.03 0.03 0.04 0.04 0.04 0.06 0.06 0.07 0.07 0.07 0.07 0.08 0.08 0.07 0.06 0.06 0.05 0.03 0.02 0.01 0.01 0.01 0.01 0.01 0.01 0.01
0.03 0.03 0.04 0.03 0.03 0.03 0.04 0.04 0.03 0.03 0.03 0.04 0.05 0.05 0.05 0.06 0.06 0.07 0.07 0.07 0.09 0.09 0.08 0.09 0.09 0.08 0.09 0.07 0.05 0.04 0.04 0.03 0.03 0.02 0.02 0.02 0.02 0.01
0.02 0.03 0.03 0.03 0.02 0.02 0.02 0.02 0.03 0.03 0.03 0.04 0.04 0.03 0.04 0.04 0.05 0.06 0.08 0.09 0.10 0.09 0.09 0.11 0.12 0.11 0.10 0.08 0.06 0.04 0.04 0.04 0.04 0.05 0.05 0.04 0.03 0.02
0.01 0.02 0.02 0.02 0.02 0.02 0.02 0.02 0.02 0.02 0.03 0.03 0.04 0.04 0.04 0.04 0.04 0.05 0.06 0.07 0.07 0.08 0.08 0.11 0.12 0.10 0.09 0.08 0.07 0.06 0.05 0.05 0.05 0.06 0.06 0.05 0.04 0.03
0.01 0.02 0.02 0.02 0.02 0.02 0.02 0.03 0.03 0.04 0.04 0.03 0.04 0.04 0.04 0.03 0.03 0.04 0.04 0.04 0.04 0.06 0.07 0.08 0.09 0.09 0.09 0.08 0.07 0.06 0.06 0.06 0.06 0.06 0.06 0.06 0.06 0.06
0.01 0.02 0.02 0.03 0.04 0.05 0.04 0.03 0.03 0.03 0.04 0.04 0.03 0.03 0.03 0.03 0.03 0.03 0.03 0.03 0.03 0.04 0.05 0.05 0.06 0.07 0.08 0.08 0.07 0.07 0.07 0.06 0.07 0.08 0.08 0.07 0.07 0.08
0.02 0.03 0.04 0.04 0.04 0.04 0.04 0.04 0.04 0.04 0.03 0.02 0.02 0.02 0.03 0.03 0.02 0.02 0.03 0.04 0.04 0.04 0.03 0.03 0.05 0.08 0.08 0.07 0.07 0.08 0.08 0.07 0.07 0.09 0.08 0.08 0.07 0.08
0.03 0.03 0.04 0.06 0.06 0.05 0.05 0.04 0.03 0.02 0.02 0.02 0.02 0.03 0.04 0.03 0.03 0.03 0.03 0.04 0.04 0.05 0.05 0.03 0.05 0.09 0.11 0.10 0.08 0.07 0.07 0.07 0.08 0.08 0.08 0.07 0.06 0.07
0.03 0.03 0.04 0.05 0.05 0.04 0.03 0.03 0.02 0.03 0.03 0.03 0.04 0.04 0.04 0.04 0.03 0.03 0.03 0.03 0.03 0.04 0.04 0.04 0.04 0.06 0.09 0.09 0.07 0.07 0.07 0.07 0.08 0.10 0.09 0.07 0.07 0.07
0.03 0.04 0.03 0.03 0.03 0.04 0.03 0.03 0.02 0.03 0.03 0.03 0.04 0.03 0.03 0.02 0.02 0.03 0.03 0.03 0.03 0.03 0.04 0.05 0.04 0.05 0.06 0.07 0.08 0.07 0.07 0.07 0.08 0.10 0.11 0.09 0.10 0.11
0.02 0.02 0.02 0.02 0.03 0.03 0.03 0.03 0.02 0.02 0.02 0.02 0.02 0.02 0.02 0.02 0.02 0.02 0.02 0.02 0.03 0.04 0.04 0.05 0.05 0.05 0.05 0.07 0.08 0.08 0.08 0.08 0.08 0.09 0.10 0.10 0.10 0.11
0.01 0.02 0.03 0.03 0.02 0.02 0.02 0.03 0.02 0.02 0.01 0.01 0.02 0.02 0.02 0.02 0.01 0.02 0.02 0.02 0.03 0.05 0.05 0.05 0.06 0.06 0.05 0.06 0.07 0.08 0.10 0.09 0.09 0.09 0.10 0.09 0.08 0.07
MSLP
1009.06 1009.15 1009.23 1009.27 1009.22 1009.08 1008.83 1008.47 1008.05 1007.59 1007.14 1006.73 1006.40 1006.17 1006.03 1005.99 1006.05 1006.17 1006.35 1006.59 1006.85 1007.15 1007.46 1007.78 1008.12 1008.45 1008.79 1009.13 1009.46 1009.79 1010.13 1010.48 1010.84 1011.22 1011.62 1012.04 1012.48 1012.94
1008.69 1008.71 1008.75 1008.77 1008.75 1008.65 1008.45 1008.16 1007.79 1007.36 1006.91 1006.47 1006.09 1005.77 1005.54 1005.40 1005.35 1005.39 1005.49 1005.67 1005.88 1006.14 1006.43 1006.74 1007.06 1007.40 1007.75 1008.10 1008.47 1008.84 1009.22 1009.61 1010.02 1010.44 1010.88 1011.33 1011.80 1012.28
1008.35 1008.29 1008.27 1008.27 1008.27 1008.21 1008.08 1007.86 1007.57 1007.19 1006.78 1006.35 1005.93 1005.55 1005.25 1005.02 1004.87 1004.82 1004.83 1004.92 1005.07 1005.26 1005.49 1005.75 1006.04 1006.35 1006.69 1007.05 1007.42 1007.82 1008.24 1008.67 1009.12 1009.58 1010.05 1010.53 1011.01 1011.49
1008.10 1007.95 1007.88 1007.85 1007.85 1007.83 1007.76 1007.62 1007.40 1007.10 1006.73 1006.31 1005.89 1005.49 1005.13 1004.83 1004.61 1004.47 1004.41 1004.41 1004.47 1004.59 1004.74 1004.93 1005.15 1005.41 1005.71 1006.04 1006.40 1006.81 1007.24 1007.70 1008.18 1008.67 1009.16 1009.65 1010.13 1010.60
1008.04 1007.81 1007.67 1007.60 1007.59 1007.59 1007.55 1007.47 1007.30 1007.05 1006.73 1006.34 1005.92 1005.51 1005.12 1004.78 1004.51 1004.31 1004.18 1004.11 1004.11 1004.14 1004.21 1004.32 1004.46 1004.64 1004.86 1005.13 1005.46 1005.83 1006.26 1006.73 1007.21 1007.72 1008.22 1008.71 1009.19 1009.66
1008.17 1007.87 1007.67 1007.55 1007.51 1007.50 1007.47 1007.40 1007.26 1007.03 1006.73 1006.35 1005.94 1005.51 1005.11 1004.75 1004.46 1004.23 1004.07 1003.96 1003.90 1003.87 1003.87 1003.89 1003.93 1004.02 1004.15 1004.34 1004.60 1004.92 1005.31 1005.76 1006.24 1006.75 1007.26 1007.75 1008.23 1008.69
1008.49 1008.13 1007.87 1007.71 1007.62 1007.57 1007.51 1007.41 1007.25 1007.00 1006.67 1006.28 1005.85 1005.42 1005.01 1004.65 1004.35 1004.12 1003.95 1003.83 1003.75 1003.68 1003.62 1003.57 1003.53 1003.51 1003.55 1003.64 1003.81 1004.07 1004.41 1004.81 1005.28 1005.77 1006.28 1006.79 1007.27 1007.73
1008.93 1008.53 1008.23 1008.02 1007.87 1007.75 1007.63 1007.46 1007.23 1006.93 1006.54 1006.10 1005.63 1005.17 1004.75 1004.39 1004.10 1003.88 1003.73 1003.62 1003.54 1003.46 1003.37 1003.26 1003.15 1003.05 1002.99 1002.99 1003.07 1003.25 1003.51 1003.88 1004.31 1004.80 1005.31 1005.82 1006.32 1006.80
1009.39 1008.99 1008.66 1008.40 1008.18 1007.99 1007.78 1007.53 1007.20 1006.80 1006.33 1005.81 1005.29 1004.78 1004.33 1003.97 1003.69 1003.49 1003.37 1003.28 1003.22 1003.14 1003.04 1002.91 1002.75 1002.59 1002.44 1002.35 1002.35 1002.45 1002.65 1002.95 1003.35 1003.82 1004.33 1004.86 1005.37 1005.88
1009.81 1009.42 1009.07 1008.77 1008.50 1008.23 1007.93 1007.58 1007.15 1006.65 1006.09 1005.49 1004.89 1004.33 1003.85 1003.46 1003.18 1002.99 1002.89 1002.83 1002.79 1002.73 1002.63 1002.48 1002.30 1002.09 1001.89 1001.73 1001.65 1001.67 1001.81 1002.06 1002.42 1002.86 1003.36 1003.89 1004.43 1004.95
1010.15 1009.76 1009.40 1009.07 1008.75 1008.42 1008.05 1007.62 1007.11 1006.53 1005.89 1005.22 1004.55 1003.95 1003.42 1003.00 1002.70 1002.51 1002.41 1002.36 1002.33 1002.27 1002.18 1002.03 1001.83 1001.59 1001.35 1001.15 1001.01 1000.97 1001.04 1001.23 1001.54 1001.95 1002.41 1002.93 1003.47 1004.00
1010.39 1009.99 1009.62 1009.27 1008.92 1008.56 1008.15 1007.67 1007.13 1006.50 1005.82 1005.11 1004.41 1003.76 1003.19 1002.74 1002.41 1002.19 1002.06 1001.99 1001.95 1001.88 1001.78 1001.62 1001.41 1001.15 1000.89 1000.65 1000.46 1000.37 1000.38 1000.51 1000.76 1001.10 1001.53 1002.01 1002.51 1003.03
1010.55 1010.13 1009.74 1009.37 1009.02 1008.64 1008.23 1007.76 1007.22 1006.61 1005.94 1005.23 1004.53 1003.87 1003.28 1002.79 1002.42 1002.15 1001.97 1001.84 1001.75 1001.65 1001.52 1001.33 1001.11 1000.83 1000.55 1000.28 1000.06 999.92 999.88 999.94 1000.11 1000.38 1000.73 1001.14 1001.58 1002.04
1010.67 1010.21 1009.79 1009.41 1009.05 1008.70 1008.32 1007.90 1007.42 1006.87 1006.26 1005.61 1004.95 1004.31 1003.71 1003.19 1002.76 1002.43 1002.17 1001.97 1001.79 1001.63 1001.44 1001.22 1000.96 1000.67 1000.37 1000.08 999.83 999.65 999.55 999.54 999.63 999.80 1000.05 1000.36 1000.71 1001.08
1010.77 1010.27 1009.82 1009.42 1009.07 1008.75 1008.44 1008.10 1007.71 1007.27 1006.76 1006.20 1005.61 1005.01 1004.43 1003.89 1003.40 1002.99 1002.63 1002.33 1002.05 1001.79 1001.53 1001.25 1000.95 1000.63 1000.31 1000.01 999.74 999.52 999.37 999.29 999.29 999.36 999.49 999.69 999.92 1000.19
1010.89 1010.34 1009.85 1009.45 1009.11 1008.84 1008.59 1008.34 1008.07 1007.74 1007.36 1006.91 1006.40 1005.86 1005.30 1004.74 1004.21 1003.71 1003.25 1002.83 1002.43 1002.07 1001.71 1001.36 1001.01 1000.66 1000.32 1000.00 999.71 999.47 999.27 999.13 999.05 999.03 999.05 999.13 999.24 999.39
1011.05 1010.46 1009.95 1009.54 1009.21 1008.98 1008.79 1008.63 1008.45 1008.23 1007.96 1007.61 1007.19 1006.70 1006.16 1005.59 1005.00 1004.41 1003.85 1003.31 1002.80 1002.31 1001.86 1001.43 1001.03 1000.64 1000.28 999.95 999.65 999.39 999.17 998.99 998.85 998.75 998.68 998.65 998.66 998.70
1011.26 1010.66 1010.14 1009.73 1009.42 1009.20 1009.05 1008.94 1008.83 1008.69 1008.49 1008.21 1007.84 1007.38 1006.85 1006.25 1005.61 1004.95 1004.28 1003.63 1003.01 1002.41 1001.86 1001.35 1000.89 1000.47 1000.09 999.75 999.45 999.19 998.96 998.76 998.59 998.44 998.32 998.22 998.16 998.13
1011.55 1010.97 1010.47 1010.07 1009.76 1009.55 1009.41 1009.30 1009.20 1009.08 1008.90 1008.63 1008.28 1007.82 1007.27 1006.64 1005.94 1005.21 1004.45 1003.71 1002.98 1002.29 1001.65 1001.07 1000.55 1000.09 999.69 999.35 999.06 998.81 998.59 998.39 998.22 998.07 997.93 997.81 997.72 997.66
1011.93 1011.41 1010.95 1010.57 1010.26 1010.03 1009.86 1009.72 1009.58 1009.41 1009.19 1008.89 1008.50 1008.01 1007.42 1006.74 1005.99 1005.19 1004.36 1003.53 1002.73 1001.96 1001.25 1000.61 1000.03 999.54 999.12 998.77 998.49 998.25 998.06 997.89 997.75 997.62 997.50 997.40 997.33 997.28
1012.43 1012.00 1011.60 1011.24 1010.93 1010.67 1010.43 1010.22 1009.99 1009.74 1009.43 1009.05 1008.58 1008.02 1007.37 1006.63 1005.83 1004.98 1004.10 1003.21 1002.35 1001.52 1000.75 1000.06 999.45 998.92 998.48 998.12 997.84 997.63 997.46 997.33 997.23 997.15 997.09 997.03 997.00 997.00
1013.05 1012.71 1012.37 1012.05 1011.73 1011.42 1011.12 1010.80 1010.47 1010.09 1009.66 1009.17 1008.60 1007.95 1007.23 1006.45 1005.61 1004.72 1003.81 1002.89 1001.99 1001.13 1000.33 999.60 998.95 998.39 997.93 997.56 997.28 997.08 996.94 996.85 996.80 996.77 996.77 996.78 996.81 996.86
1013.74 1013.50 1013.24 1012.95 1012.62 1012.27 1011.89 1011.47 1011.01 1010.50 1009.95 1009.33 1008.67 1007.94 1007.16 1006.33 1005.47 1004.57 1003.66 1002.74 1001.84 1000.97 1000.16 999.41 998.73 998.15 997.66 997.28 996.99 996.79 996.67 996.61 996.60 996.63 996.68 996.75 996.84 996.94
Thickness
5640 5637 5635 5633 5632 5631 5628 5624 5618 5615 5618 5622 5622 5625 5625 5625 5625 5624 5623 5623 5623 5623 5623 5624 5625 5625 5626 5627 5628 5630 5631 5633 5636 5638 5640 5641 5643 5645
5634 5630 5628 5626 5624 5623 5621 5619 5615 5611 5609 5614 5615 5617 5617 5617 5617 5617 5617 5617 5617 5618 5618 5618 5618 5618 5619 5620 5621 5622 5624 5626 5628 5630 5633 5634 5636 5638
5628 5625 5622 5619 5616 5615 5613 5611 5609 5605 5602 5605 5607 5608 5607 5607 5608 5609 5610 5610 5610 5612 5612 5612 5612 5612 5613 5613 5614 5615 5616 5618 5620 5622 5624 5626 5628 5631
5622 5618 5615 5613 5608 5606 5604 5602 5601 5599 5596 5594 5596 5597 5598 5599 5599 5600 5601 5603 5604 5605 5605 5606 5607 5607 5607 5607 5607 5608 5609 5610 5612 5614 5616 5619 5620 5622
5616 5612 5609 5605 5601 5599 5596 5594 5593 5592 5589 5587 5587 5588 5589 5590 5590 5591 5592 5593 5595 5596 5597 5598 5599 5599 5599 5600 5600 5601 5602 5603 5605 5606 5608 5610 5612 5615
5611 5607 5603 5598 5594 5592 5590 5586 5584 5582 5580 5579 5579 5579 5579 5580 5579 5579 5580 5581 5583 5586 5587 5588 5589 5590 5591 5592 5593 5594 5595 5596 5597 5599 5600 5603 5605 5607
5604 5601 5596 5592 5587 5584 5581 5577 5575 5572 5571 5569 5568 5568 5568 5567 5566 5567 5568 5570 5572 5575 5575 5578 5579 5580 5581 5583 5584 5586 5588 5589 5590 5592 5593 5595 5597 5599
5598 5594 5590 5586 5581 5577 5573 5570 5567 5563 5562 5560 5559 5557 5557 5557 5558 5558 5557 5559 5561 5565 5565 5567 5570 5572 5574 5576 5578 5579 5581 5582 5583 5584 5586 5588 5590 5592
5591 5587 5583 5579 5573 5569 5566 5564 5560 5558 5555 5552 5550 5549 5549 5550 5549 5549 5549 5549 5551 5555 5556 5558 5560 5562 5566 5570 5571 5573 5574 5574 5576 5577 5579 5581 5583 5585
5586 5581 5575 5570 5566 5561 5559 5556 5554 5552 5550 5547 5545 5544 5544 5544 5543 5542 5542 5543 5546 5548 5549 5549 5552 5555 5559 5562 5565 5566 5567 5568 5569 5571 5572 5574 5576 5578
5580 5575 5569 5563 5558 5554 5552 5549 5547 5545 5545 5543 5540 5539 5539 5538 5536 5534 5534 5534 5536 5539 5542 5542 5545 5547 5550 5553 5556 5558 5560 5561 5562 5564 5565 5567 5569 5570
5573 5567 5562 5557 5552 5548 5544 5542 5540 5539 5538 5537 5536 5535 5535 5534 5531 5528 5527 5527 5528 5530 5534 5533 5536 5538 5541 5546 5548 5549 5551 5552 5554 5556 5558 5560 5561 5562
5566 5563 5558 5553 5548 5544 5540 5537 5535 5533 5533 5532 5531 5530 5529 5527 5525 5524 5522 5521 5521 5522 5525 5525 5527 5529 5531 5535 5538 5540 5542 5544 5546 5549 5551 5553 5555 5556
5561 5558 5554 5549 5545 5541 5538 5536 5532 5529 5529 5527 5525 5523 5522 5520 5519 5518 5517 5518 5518 5518 5519 5519 5519 5521 5523 5526 5529 5532 5534 5537 5540 5543 5545 5547 5548 5551
5558 5554 5550 5546 5543 5540 5537 5533 5529 5526 5523 5521 5518 5517 5516 5515 5514 5513 5513 5513 5513 5514 5515 5515 5515 5516 5517 5519 5521 5524 5526 5529 5532 5535 5538 5540 5542 5544
5555 5551 5548 5545 5541 5537 5534 5531 5527 5523 5519 5516 5513 5512 5510 5509 5508 5507 5507 5507 5507 5508 5509 5509 5509 5510 5511 5513 5515 5517 5519 5522 5525 5528 5530 5533 5536 5539
5550 5549 5548 5544 5540 5537 5534 5530 5525 5521 5517 5513 5510 5507 5506 5505 5504 5503 5502 5501 5500 5501 5502 5503 5504 5504 5505 5506 5508 5511 5513 5516 5518 5520 5522 5525 5528 5532
5549 5548 5544 5541 5537 5534 5531 5527 5523 5518 5513 5510 5507 5505 5503 5501 5500 5499 5498 5497 5496 5496 5497 5497 5498 5499 5500 5502 5502 5504 5506 5508 5511 5513 5515 5518 5521 5525
5549 5546 5542 5538 5534 5531 5527 5523 5518 5514 5511 5507 5504 5502 5500 5499 5497 5496 5495 5494 5493 5493 5493 5493 5492 5492 5493 5494 5497 5497 5499 5502 5504 5507 5509 5512 5515 5518
5550 5545 5540 5535 5530 5527 5523 5519 5515 5512 5508 5505 5503 5500 5498 5496 5495 5494 5493 5491 5490 5490 5490 5489 5489 5488 5487 5488 5490 5492 5494 5497 5499 5501 5503 5506 5509 5512
5549 5543 5538 5533 5527 5523 5520 5516 5512 5509 5506 5503 5500 5498 5496 5494 5493 5493 5491 5489 5488 5487 5488 5487 5487 5487 5487 5487 5487 5490 5492 5493 5495 5496 5499 5501 5504 5506
5548 5542 5536 5531 5526 5521 5518 5514 5510 5506 5502 5499 5497 5495 5494 5493 5492 5491 5490 5488 5487 5486 5487 5487 5488 5487 5486 5485 5486 5488 5489 5490 5491 5494 5496 5499 5501 5503
5547 5541 5536 5530 5525 5520 5516 5512 5507 5503 5499 5496 5494 5493 5492 5491 5490 5490 5489 5488 5487 5487 5487 5486 5486 5486 5486 5485 5485 5485 5487 5488 5490 5492 5493 5496 5499 5501